ET861 CYRC-CYSG

Flight info

Callsign ET861
Flight time 0h 53m
Altitude 22000
Route TADES DCT LENIV
Aircraft BE9L/L-SBDFGRY/SB1

Departure

Time 2026-04-18 17:42
Airport Chicoutimi/Saint-Honoré Aerodrome (CYRC)

Arrival

Time 2026-04-18 18:35
Airport Saint-Georges Airport (CYSG)
Time Latitude Longitude Altitude Speed Heading
2026-04-18 17:24 48.51545 -71.05296 544 ft 0 kts 357°
2026-04-18 17:36 48.51546 -71.05296 544 ft 2 kts 356°
2026-04-18 17:37 48.51581 -71.05336 545 ft 11 kts 326°
2026-04-18 17:37 48.51632 -71.05352 546 ft 0 kts 359°
2026-04-18 17:39 48.51637 -71.05352 546 ft 3 kts 356°
2026-04-18 17:39 48.51695 -71.05358 547 ft 12 kts 350°
2026-04-18 17:39 48.51758 -71.05481 547 ft 20 kts 286°
2026-04-18 17:39 48.51803 -71.05710 547 ft 27 kts 286°
2026-04-18 17:40 48.51851 -71.05985 545 ft 19 kts 284°
2026-04-18 17:40 48.51918 -71.06165 543 ft 15 kts 299°
2026-04-18 17:40 48.51891 -71.06203 543 ft 12 kts 103°
2026-04-18 17:40 48.51890 -71.06195 543 ft 0 kts 105°
2026-04-18 17:41 48.51855 -71.05999 545 ft 45 kts 105°
2026-04-18 17:41 48.51730 -71.05278 548 ft 94 kts 105°
2026-04-18 17:42 48.51545 -71.04195 749 ft 113 kts 103°
2026-04-18 17:42 48.51347 -71.02971 1155 ft 121 kts 105°
2026-04-18 17:42 48.51164 -71.01786 1813 ft 110 kts 104°
2026-04-18 17:42 48.51057 -71.00668 2407 ft 111 kts 105°
2026-04-18 17:43 48.50987 -70.99466 2759 ft 119 kts 104°
2026-04-18 17:43 48.50815 -70.98267 3052 ft 112 kts 144°
2026-04-18 17:43 48.50113 -70.98095 3418 ft 109 kts 182°
2026-04-18 17:43 48.49355 -70.98191 3827 ft 108 kts 184°
2026-04-18 17:44 48.48608 -70.98268 4283 ft 107 kts 184°
2026-04-18 17:44 48.47874 -70.98398 4721 ft 106 kts 191°
2026-04-18 17:44 48.47152 -70.98574 5166 ft 105 kts 191°
2026-04-18 17:44 48.46438 -70.98740 5637 ft 103 kts 192°
2026-04-18 17:45 48.45733 -70.98900 6105 ft 101 kts 192°
2026-04-18 17:45 48.45049 -70.99053 6561 ft 98 kts 193°
2026-04-18 17:45 48.44366 -70.99206 6946 ft 100 kts 193°
2026-04-18 17:45 48.43674 -70.99360 7332 ft 102 kts 193°
2026-04-18 17:46 48.42962 -70.99517 7724 ft 105 kts 194°
2026-04-18 17:46 48.42236 -70.99679 8148 ft 105 kts 194°
2026-04-18 17:46 48.41504 -70.99839 8509 ft 107 kts 194°
2026-04-18 17:46 48.40766 -71.00002 8878 ft 109 kts 194°
2026-04-18 17:47 48.40012 -71.00169 9242 ft 111 kts 195°
2026-04-18 17:47 48.39236 -71.00337 9646 ft 113 kts 195°
2026-04-18 17:47 48.38452 -71.00512 10016 ft 114 kts 195°
2026-04-18 17:47 48.37667 -71.00685 10346 ft 116 kts 196°
2026-04-18 17:48 48.36859 -71.00863 10709 ft 117 kts 195°
2026-04-18 17:48 48.36055 -71.01038 11075 ft 118 kts 195°
2026-04-18 17:48 48.35241 -71.01219 11449 ft 118 kts 195°
2026-04-18 17:48 48.34422 -71.01397 11821 ft 119 kts 195°
2026-04-18 17:49 48.33609 -71.01577 12196 ft 120 kts 195°
2026-04-18 17:49 48.32782 -71.01759 12579 ft 120 kts 195°
2026-04-18 17:49 48.31949 -71.01941 12965 ft 121 kts 195°
2026-04-18 17:49 48.31124 -71.02122 13323 ft 122 kts 195°
2026-04-18 17:50 48.30242 -71.02322 13497 ft 134 kts 195°
2026-04-18 17:50 48.29317 -71.02523 13831 ft 134 kts 194°
2026-04-18 17:50 48.28381 -71.02728 14122 ft 136 kts 195°
2026-04-18 17:50 48.27440 -71.02933 14416 ft 136 kts 195°
2026-04-18 17:51 48.26506 -71.03137 14694 ft 137 kts 195°
2026-04-18 17:51 48.25555 -71.03346 14977 ft 138 kts 194°
2026-04-18 17:51 48.24595 -71.03557 15254 ft 139 kts 195°
2026-04-18 17:51 48.23641 -71.03765 15540 ft 140 kts 195°
2026-04-18 17:52 48.22671 -71.03977 15808 ft 141 kts 195°
2026-04-18 17:52 48.21696 -71.04191 16086 ft 142 kts 195°
2026-04-18 17:52 48.20724 -71.04404 16361 ft 143 kts 195°
2026-04-18 17:52 48.19734 -71.04620 16635 ft 144 kts 195°
2026-04-18 17:53 48.18737 -71.04838 16910 ft 144 kts 195°
2026-04-18 17:53 48.17750 -71.05053 17182 ft 145 kts 196°
2026-04-18 17:53 48.16739 -71.05274 17464 ft 146 kts 196°
2026-04-18 17:53 48.15714 -71.05498 17649 ft 151 kts 195°
2026-04-18 17:54 48.14674 -71.05726 17881 ft 153 kts 195°
2026-04-18 17:54 48.13612 -71.05956 18133 ft 154 kts 195°
2026-04-18 17:54 48.12563 -71.06185 18372 ft 155 kts 195°
2026-04-18 17:54 48.11491 -71.06418 18591 ft 156 kts 195°
2026-04-18 17:55 48.10411 -71.06653 18805 ft 157 kts 195°
2026-04-18 17:55 48.09340 -71.06886 18993 ft 158 kts 196°
2026-04-18 17:55 48.08247 -71.07124 19212 ft 159 kts 196°
2026-04-18 17:55 48.07147 -71.07364 19413 ft 160 kts 196°
2026-04-18 17:56 48.06040 -71.07605 19623 ft 161 kts 196°
2026-04-18 17:56 48.04937 -71.07844 19806 ft 162 kts 196°
2026-04-18 17:56 48.02685 -71.08333 20201 ft 163 kts 196°
2026-04-18 17:57 48.01563 -71.08577 20393 ft 165 kts 196°
2026-04-18 17:57 47.99289 -71.09069 20791 ft 166 kts 197°
2026-04-18 17:58 47.96982 -71.09570 21166 ft 168 kts 197°
2026-04-18 17:58 47.94646 -71.10076 21537 ft 170 kts 197°
2026-04-18 17:59 47.92310 -71.10580 21867 ft 171 kts 197°
2026-04-18 17:59 47.91107 -71.10843 21907 ft 179 kts 197°
2026-04-18 17:59 47.88549 -71.11398 21948 ft 191 kts 197°
2026-04-18 18:00 47.87217 -71.11685 21945 ft 194 kts 196°
2026-04-18 18:00 47.84519 -71.12265 21956 ft 198 kts 196°
2026-04-18 18:01 47.81721 -71.12871 21952 ft 209 kts 196°
2026-04-18 18:01 47.78800 -71.13498 21953 ft 215 kts 195°
2026-04-18 18:02 47.75814 -71.14139 21963 ft 220 kts 195°
2026-04-18 18:02 47.72761 -71.14793 21955 ft 222 kts 195°
2026-04-18 18:02 47.71216 -71.15124 21958 ft 223 kts 195°
2026-04-18 18:03 47.68136 -71.15784 21969 ft 225 kts 195°
2026-04-18 18:03 47.66603 -71.16112 21970 ft 225 kts 195°
2026-04-18 18:04 47.63497 -71.16776 21974 ft 226 kts 195°
2026-04-18 18:04 47.61938 -71.17109 21973 ft 226 kts 195°
2026-04-18 18:04 47.58819 -71.17775 21981 ft 225 kts 195°
2026-04-18 18:05 47.55718 -71.18436 21982 ft 226 kts 195°
2026-04-18 18:05 47.54160 -71.18768 21982 ft 226 kts 195°
2026-04-18 18:05 47.52622 -71.19095 21978 ft 225 kts 195°
2026-04-18 18:06 47.49507 -71.19758 21991 ft 225 kts 195°
2026-04-18 18:06 47.47951 -71.20088 21991 ft 225 kts 195°
2026-04-18 18:06 47.46414 -71.20415 21990 ft 225 kts 195°
2026-04-18 18:07 47.44865 -71.20743 21986 ft 225 kts 195°
2026-04-18 18:07 47.43312 -71.21073 21990 ft 225 kts 195°
2026-04-18 18:07 47.40221 -71.21727 22035 ft 224 kts 195°
2026-04-18 18:08 47.38670 -71.22056 22033 ft 224 kts 195°
2026-04-18 18:08 47.37119 -71.22384 22037 ft 225 kts 195°
2026-04-18 18:08 47.35575 -71.22711 22036 ft 225 kts 195°
2026-04-18 18:08 47.34020 -71.23040 22042 ft 225 kts 195°
2026-04-18 18:09 47.32485 -71.23364 22041 ft 225 kts 195°
2026-04-18 18:09 47.30928 -71.23692 22039 ft 225 kts 195°
2026-04-18 18:09 47.29387 -71.24018 22041 ft 225 kts 195°
2026-04-18 18:09 47.27829 -71.24346 22040 ft 225 kts 195°
2026-04-18 18:10 47.26275 -71.24673 22039 ft 225 kts 195°
2026-04-18 18:10 47.24732 -71.24973 22040 ft 227 kts 190°
2026-04-18 18:10 47.23124 -71.24765 22047 ft 233 kts 179°
2026-04-18 18:10 47.21526 -71.24399 22047 ft 233 kts 180°
2026-04-18 18:11 47.19911 -71.24046 22045 ft 234 kts 180°
2026-04-18 18:11 47.18322 -71.23699 22046 ft 233 kts 180°
2026-04-18 18:11 47.16714 -71.23345 22050 ft 234 kts 180°
2026-04-18 18:11 47.15101 -71.22990 22050 ft 234 kts 180°
2026-04-18 18:12 47.13503 -71.22639 22079 ft 234 kts 180°
2026-04-18 18:12 47.11890 -71.22284 22076 ft 233 kts 180°
2026-04-18 18:12 47.10276 -71.21930 22076 ft 233 kts 180°
2026-04-18 18:12 47.08687 -71.21582 22053 ft 233 kts 179°
2026-04-18 18:13 47.07078 -71.21229 22055 ft 233 kts 179°
2026-04-18 18:13 47.05488 -71.20881 22055 ft 233 kts 179°
2026-04-18 18:13 47.03879 -71.20529 22038 ft 233 kts 179°
2026-04-18 18:13 47.02268 -71.20176 22054 ft 234 kts 179°
2026-04-18 18:14 47.00661 -71.19825 22050 ft 235 kts 179°
2026-04-18 18:14 46.99039 -71.19470 22048 ft 235 kts 179°
2026-04-18 18:14 46.97434 -71.19120 22049 ft 236 kts 179°
2026-04-18 18:14 46.95798 -71.18762 22017 ft 237 kts 179°
2026-04-18 18:15 46.94152 -71.18407 21782 ft 245 kts 179°
2026-04-18 18:15 46.92427 -71.18032 21466 ft 249 kts 179°
2026-04-18 18:15 46.90724 -71.17657 21134 ft 249 kts 179°
2026-04-18 18:15 46.89012 -71.17281 20803 ft 248 kts 179°
2026-04-18 18:16 46.87312 -71.16912 20476 ft 248 kts 179°
2026-04-18 18:16 46.85602 -71.16541 20146 ft 247 kts 178°
2026-04-18 18:16 46.83896 -71.16170 19817 ft 246 kts 178°
2026-04-18 18:16 46.82217 -71.15805 19486 ft 245 kts 178°
2026-04-18 18:17 46.80531 -71.15439 19161 ft 244 kts 178°
2026-04-18 18:17 46.78866 -71.15077 18841 ft 243 kts 178°
2026-04-18 18:17 46.77188 -71.14714 18518 ft 242 kts 178°
2026-04-18 18:17 46.76076 -71.14474 18298 ft 242 kts 178°
2026-04-18 18:18 46.73872 -71.13995 17849 ft 239 kts 178°
2026-04-18 18:18 46.72782 -71.13759 17629 ft 238 kts 178°
2026-04-18 18:18 46.70617 -71.13291 17218 ft 234 kts 178°
2026-04-18 18:18 46.69543 -71.13058 17005 ft 233 kts 178°
2026-04-18 18:19 46.67939 -71.12712 16697 ft 232 kts 178°
2026-04-18 18:19 46.66344 -71.12368 16392 ft 231 kts 178°
2026-04-18 18:19 46.64777 -71.12030 16092 ft 229 kts 178°
2026-04-18 18:19 46.63197 -71.11689 15779 ft 228 kts 178°
2026-04-18 18:20 46.61625 -71.11350 15477 ft 227 kts 178°
2026-04-18 18:20 46.60064 -71.11015 15177 ft 226 kts 178°
2026-04-18 18:20 46.58526 -71.10683 14881 ft 225 kts 178°
2026-04-18 18:20 46.56981 -71.10351 14583 ft 224 kts 178°
2026-04-18 18:21 46.55440 -71.10020 14274 ft 223 kts 178°
2026-04-18 18:21 46.53922 -71.09694 13991 ft 222 kts 178°
2026-04-18 18:21 46.52387 -71.09364 13684 ft 222 kts 177°
2026-04-18 18:21 46.50861 -71.09036 13377 ft 220 kts 177°
2026-04-18 18:22 46.49342 -71.08710 13081 ft 219 kts 177°
2026-04-18 18:22 46.47858 -71.08391 12797 ft 218 kts 177°
2026-04-18 18:22 46.46361 -71.08071 12510 ft 217 kts 177°
2026-04-18 18:22 46.44866 -71.07751 12221 ft 215 kts 177°
2026-04-18 18:23 46.43397 -71.07436 11939 ft 215 kts 177°
2026-04-18 18:23 46.41917 -71.07120 11652 ft 214 kts 177°
2026-04-18 18:23 46.40446 -71.06805 11372 ft 213 kts 177°
2026-04-18 18:23 46.38989 -71.06494 11092 ft 213 kts 176°
2026-04-18 18:24 46.37522 -71.06180 10808 ft 212 kts 176°
2026-04-18 18:24 46.36063 -71.05870 10533 ft 211 kts 176°
2026-04-18 18:24 46.34610 -71.05558 10254 ft 210 kts 176°
2026-04-18 18:24 46.33165 -71.05251 9975 ft 209 kts 176°
2026-04-18 18:25 46.31743 -71.04949 9687 ft 209 kts 176°
2026-04-18 18:25 46.30300 -71.04641 9402 ft 208 kts 175°
2026-04-18 18:25 46.28870 -71.04336 9129 ft 207 kts 176°
2026-04-18 18:25 46.27457 -71.04036 8855 ft 206 kts 175°
2026-04-18 18:26 46.26037 -71.03733 8585 ft 206 kts 176°
2026-04-18 18:26 46.24612 -71.03431 8312 ft 205 kts 175°
2026-04-18 18:26 46.23197 -71.03130 8039 ft 205 kts 175°
2026-04-18 18:26 46.21798 -71.02833 7770 ft 205 kts 175°
2026-04-18 18:27 46.20379 -71.02533 7492 ft 204 kts 175°
2026-04-18 18:27 46.18995 -71.02239 7233 ft 203 kts 175°
2026-04-18 18:27 46.17594 -71.01941 6975 ft 202 kts 175°
2026-04-18 18:27 46.16203 -71.01647 6706 ft 202 kts 174°
2026-04-18 18:28 46.14813 -71.01352 6440 ft 201 kts 174°
2026-04-18 18:28 46.13441 -71.01062 6163 ft 201 kts 174°
2026-04-18 18:28 46.12059 -71.00770 5895 ft 199 kts 174°
2026-04-18 18:28 46.10689 -71.00479 5635 ft 199 kts 174°
2026-04-18 18:29 46.09319 -71.00190 5353 ft 198 kts 174°
2026-04-18 18:29 46.07964 -70.99903 5110 ft 194 kts 174°
2026-04-18 18:29 46.06647 -70.99626 4855 ft 192 kts 174°
2026-04-18 18:29 46.05357 -70.99248 4602 ft 186 kts 164°
2026-04-18 18:30 46.04220 -70.98371 4354 ft 186 kts 149°
2026-04-18 18:30 46.03275 -70.97114 4110 ft 186 kts 141°
2026-04-18 18:30 46.02347 -70.95812 3878 ft 184 kts 141°
2026-04-18 18:30 46.01432 -70.94539 3634 ft 186 kts 141°
2026-04-18 18:31 46.00503 -70.93243 3384 ft 185 kts 140°
2026-04-18 18:31 45.99589 -70.91964 3137 ft 180 kts 139°
2026-04-18 18:31 45.98922 -70.90453 2891 ft 183 kts 115°
2026-04-18 18:31 45.98801 -70.88615 2785 ft 188 kts 89°
2026-04-18 18:32 45.99269 -70.86866 2754 ft 195 kts 62°
2026-04-18 18:32 46.00192 -70.85418 2748 ft 195 kts 52°
2026-04-18 18:32 46.01119 -70.84079 2733 ft 181 kts 52°
2026-04-18 18:32 46.01973 -70.82830 2728 ft 170 kts 53°
2026-04-18 18:33 46.02782 -70.81629 2711 ft 169 kts 55°
2026-04-18 18:33 46.03623 -70.80371 2491 ft 176 kts 54°
2026-04-18 18:33 46.04473 -70.79114 2251 ft 178 kts 54°
2026-04-18 18:33 46.05345 -70.77824 2029 ft 180 kts 53°
2026-04-18 18:34 46.06225 -70.76520 1764 ft 180 kts 54°
2026-04-18 18:34 46.07059 -70.75286 1516 ft 164 kts 53°
2026-04-18 18:34 46.07801 -70.74220 1300 ft 138 kts 52°
2026-04-18 18:34 46.08430 -70.73298 1097 ft 122 kts 59°
2026-04-18 18:35 46.08986 -70.72408 930 ft 119 kts 56°
2026-04-18 18:35 46.09496 -70.71631 896 ft 90 kts 52°
2026-04-18 18:35 46.09804 -70.71183 897 ft 35 kts 43°
2026-04-18 18:35 46.09928 -70.71009 899 ft 19 kts 45°
2026-04-18 18:36 46.09958 -70.70900 899 ft 7 kts 88°
2026-04-18 18:36 46.09957 -70.70806 900 ft 16 kts 95°
2026-04-18 18:36 46.09992 -70.70721 900 ft 17 kts 46°
2026-04-18 18:36 46.10030 -70.70666 902 ft 5 kts 38°
2026-04-18 18:37 46.10061 -70.70639 903 ft 2 kts 78°
2026-04-18 18:37 46.10047 -70.70635 902 ft 0 kts 236°